| time (UTC) | temp C | wind direction | speed KPH | gust KPH | rain 1hr cm | rain 24hr cm | rain mn cm | humidity % | barometer mb |
| 20260902113058 | 24 | 162 | 0.0 | 6.4 | 0.00 | 0.00 | 0.00 | 91 | 1012.0 |
| 20260902111552 | 23 | 165 | 0.0 | 0.0 | 0.00 | 0.00 | 0.00 | 91 | 1011.9 |
| 20260902110052 | 23 | 165 | 0.0 | 0.0 | 0.00 | 0.00 | 0.00 | 91 | 1011.5 |
| 20260902104556 | 23 | 165 | 0.0 | 0.0 | 0.00 | 0.00 | 0.00 | 91 | 1011.4 |
| 20260902103102 | 23 | 165 | 0.0 | 0.0 | 0.00 | 0.00 | 0.00 | 90 | 1011.2 |
| 20260902101553 | 24 | 165 | 0.0 | 0.0 | 0.00 | 0.00 | 0.00 | 89 | 1010.9 |
| 20260902100107 | 24 | 165 | 0.0 | 3.2 | 0.00 | 0.00 | 0.00 | 89 | 1011.1 |
| 20260902094553 | 24 | 165 | 0.0 | 3.2 | 0.00 | 0.00 | 0.00 | 90 | 1011.1 |
| 20260902093053 | 23 | 165 | 0.0 | 4.8 | 0.00 | 0.00 | 0.00 | 91 | 1011.2 |
| 20260902091607 | 23 | 165 | 0.0 | 4.8 | 0.00 | 0.00 | 0.00 | 92 | 1011.2 |
| 20260902090053 | 23 | 161 | 0.0 | 3.2 | 0.00 | 0.00 | 0.00 | 92 | 1011.3 |
| 20260902084553 | 24 | 161 | 0.0 | 4.8 | 0.00 | 0.00 | 0.00 | 91 | 1011.2 |
| 20260902083053 | 24 | 161 | 0.0 | 8.0 | 0.00 | 0.00 | 0.00 | 92 | 1011.3 |
| 20260902081553 | 23 | 145 | 0.0 | 3.2 | 0.00 | 0.00 | 0.00 | 93 | 1011.1 |
| 20260902080106 | 23 | 145 | 1.6 | 4.8 | 0.00 | 0.00 | 0.00 | 93 | 1011.3 |
| 20260902074554 | 23 | 145 | 0.0 | 3.2 | 0.00 | 0.00 | 0.00 | 92 | 1011.2 |
| 20260902073103 | 23 | 145 | 0.0 | 6.4 | 0.00 | 0.00 | 0.00 | 92 | 1011.1 |
| 20260902071609 | 23 | 145 | 0.0 | 4.8 | 0.00 | 0.00 | 0.00 | 93 | 1011.3 |
| 20260902070053 | 23 | 145 | 0.0 | 3.2 | 0.00 | 0.00 | 0.00 | 93 | 1011.4 |
| 20260902064554 | 23 | 145 | 0.0 | 6.4 | 0.00 | 0.00 | 0.00 | 94 | 1011.5 |
| 20260902063057 | 23 | 145 | 1.6 | 4.8 | 0.00 | 0.00 | 0.00 | 95 | 1011.5 |
| 20260902061607 | 23 | 145 | 0.0 | 4.8 | 0.00 | 0.00 | 0.00 | 95 | 1011.7 |
| 20260902060055 | 23 | 145 | 0.0 | 3.2 | 0.00 | 0.00 | 0.00 | 95 | 1011.9 |
| 20260902054554 | 23 | 145 | 0.0 | 0.0 | 0.00 | 0.00 | 0.00 | 95 | 1012.0 |
| 20260902053055 | 23 | 145 | 0.0 | 1.6 | 0.00 | 0.00 | 0.00 | 95 | 1011.9 |
| 20260902051554 | 23 | 145 | 0.0 | 0.0 | 0.00 | 0.00 | 0.00 | 95 | 1011.9 |
| 20260902050054 | 23 | 145 | 0.0 | 3.2 | 0.00 | 0.00 | 0.00 | 95 | 1012.1 |
| 20260902044554 | 23 | 145 | 0.0 | 0.0 | 0.00 | 0.00 | 0.00 | 95 | 1012.0 |
| 20260902043056 | 24 | 145 | 0.0 | 4.8 | 0.00 | 0.00 | 0.00 | 94 | 1011.8 |
| 20260902041554 | 24 | 145 | 0.0 | 0.0 | 0.00 | 0.00 | 0.00 | 94 | 1011.7 |
| 20260902040057 | 25 | 145 | 0.0 | 4.8 | 0.00 | 0.00 | 0.00 | 94 | 1011.7 |
| 20260902034554 | 25 | 176 | 0.0 | 6.4 | 0.00 | 0.00 | 0.00 | 94 | 1011.6 |
| 20260902033054 | 25 | 176 | 0.0 | 6.4 | 0.00 | 0.00 | 0.00 | 94 | 1011.6 |
| 20260902031555 | 25 | 207 | 1.6 | 4.8 | 0.00 | 0.00 | 0.00 | 94 | 1011.7 |
| 20260902030054 | 25 | 324 | 0.0 | 1.6 | 0.00 | 0.00 | 0.00 | 95 | 1011.6 |
| 20260902024555 | 25 | 323 | 0.0 | 0.0 | 0.00 | 0.00 | 0.00 | 95 | 1011.7 |
| 20260902023059 | 25 | 324 | 0.0 | 0.0 | 0.00 | 0.00 | 0.00 | 95 | 1011.7 |
| 20260902021558 | 25 | 323 | 0.0 | 0.0 | 0.00 | 0.00 | 0.00 | 95 | 1011.7 |
| 20260902020054 | 25 | 324 | 0.0 | 0.0 | 0.00 | 0.00 | 0.00 | 95 | 1011.5 |
| 20260902014557 | 25 | 323 | 0.0 | 0.0 | 0.00 | 0.00 | 0.00 | 95 | 1011.5 |
| 20260902013055 | 25 | 324 | 0.0 | 0.0 | 0.00 | 0.00 | 0.00 | 95 | 1011.5 |
| 20260902011600 | 25 | 323 | 0.0 | 0.0 | 0.00 | 0.00 | 0.00 | 95 | 1011.3 |
| 20260902010118 | 25 | 323 | 0.0 | 0.0 | 0.00 | 0.00 | 0.00 | 94 | 1011.2 |
| 20260902004557 | 25 | 323 | 0.0 | 0.0 | 0.00 | 0.00 | 0.00 | 94 | 1011.2 |
| 20260902003055 | 25 | 324 | 0.0 | 0.0 | 0.00 | 0.00 | 0.00 | 93 | 1010.9 |
| 20260902001555 | 26 | 324 | 0.0 | 0.0 | 0.00 | 0.00 | 0.00 | 92 | 1011.1 |
| 20260902000055 | 26 | 323 | 0.0 | 0.0 | 0.00 | 0.00 | 0.00 | 90 | 1011.2 |
| 20260901234555 | 26 | 324 | 0.0 | 0.0 | 0.00 | 0.00 | 0.00 | 90 | 1011.3 |
| 20260901233101 | 27 | 323 | 0.0 | 0.0 | 0.00 | 0.00 | 0.00 | 89 | 1011.3 |
| 20260901231557 | 27 | 324 | 0.0 | 0.0 | 0.00 | 0.00 | 0.00 | 86 | 1011.4 |
| 20260901230055 | 28 | 323 | 0.0 | 0.0 | 0.00 | 0.00 | 0.00 | 84 | 1011.5 |
| 20260901224556 | 28 | 323 | 0.0 | 3.2 | 0.00 | 0.00 | 0.00 | 82 | 1011.5 |
| 20260901223057 | 28 | 323 | 0.0 | 0.0 | 0.00 | 0.00 | 0.00 | 83 | 1011.5 |
| 20260901221605 | 28 | 324 | 0.0 | 3.2 | 0.00 | 0.00 | 0.00 | 82 | 1011.5 |
| 20260901220055 | 28 | 323 | 0.0 | 3.2 | 0.00 | 0.00 | 0.00 | 82 | 1011.4 |
| 20260901214556 | 28 | 323 | 0.0 | 3.2 | 0.00 | 0.00 | 0.00 | 81 | 1011.4 |
| 20260901213100 | 28 | 324 | 1.6 | 3.2 | 0.00 | 0.00 | 0.00 | 82 | 1011.5 |
| 20260901211556 | 28 | 323 | 0.0 | 6.4 | 0.00 | 0.00 | 0.00 | 81 | 1011.7 |
| 20260901210056 | 27 | 324 | 0.0 | 6.4 | 0.00 | 0.00 | 0.00 | 81 | 1011.8 |
| 20260901204555 | 28 | 359 | 1.6 | 6.4 | 0.00 | 0.00 | 0.00 | 79 | 1011.7 |
| 20260901203102 | 28 | 14 | 0.0 | 4.8 | 0.00 | 0.00 | 0.00 | 79 | 1011.6 |
| 20260901201556 | 28 | 14 | 1.6 | 4.8 | 0.00 | 0.00 | 0.00 | 78 | 1011.7 |
| 20260901200106 | 28 | 14 | 3.2 | 6.4 | 0.00 | 0.00 | 0.00 | 79 | 1011.7 |
| 20260901194603 | 27 | 14 | 0.0 | 3.2 | 0.00 | 0.03 | 0.00 | 79 | 1011.7 |
| 20260901193102 | 27 | 14 | 0.0 | 4.8 | 0.00 | 0.03 | 0.00 | 82 | 1011.9 |
| 20260901191556 | 27 | 334 | 0.0 | 4.8 | 0.00 | 0.03 | 0.00 | 82 | 1012.3 |
| 20260901190112 | 26 | 58 | 1.6 | 8.0 | 0.00 | 0.03 | 0.00 | 83 | 1012.3 |
| 20260901184605 | 26 | 15 | 1.6 | 8.0 | 0.00 | 0.08 | 0.00 | 84 | 1012.6 |
| 20260901183057 | 25 | 319 | 0.0 | 6.4 | 0.00 | 0.08 | 0.00 | 85 | 1012.6 |
| 20260901181559 | 26 | 15 | 0.0 | 9.7 | 0.00 | 0.08 | 0.00 | 84 | 1012.6 |
| 20260901180100 | 26 | 300 | 1.6 | 6.4 | 0.00 | 0.08 | 0.00 | 83 | 1012.4 |
| 20260901174604 | 26 | 339 | 4.8 | 9.7 | 0.00 | 0.10 | 0.00 | 83 | 1012.5 |
| 20260901173059 | 25 | 323 | 0.0 | 6.4 | 0.00 | 0.10 | 0.00 | 86 | 1012.5 |
| 20260901171556 | 25 | 254 | 0.0 | 6.4 | 0.00 | 0.10 | 0.00 | 84 | 1012.6 |
| 20260901170156 | 26 | 317 | 1.6 | 6.4 | 0.00 | 0.10 | 0.00 | 83 | 1012.7 |
| 20260901164557 | 26 | 311 | 1.6 | 6.4 | 0.00 | 0.18 | 0.00 | 84 | 1012.8 |
| 20260901163103 | 26 | 297 | 1.6 | 4.8 | 0.00 | 0.18 | 0.00 | 84 | 1012.8 |
| 20260901161613 | 25 | 297 | 1.6 | 4.8 | 0.00 | 0.18 | 0.00 | 85 | 1012.9 |
| 20260901160057 | 25 | 297 | 0.0 | 4.8 | 0.00 | 0.18 | 0.00 | 85 | 1012.8 |
| 20260901154605 | 25 | 297 | 0.0 | 3.2 | 0.00 | 0.71 | 0.00 | 85 | 1012.9 |
| 20260901153122 | 25 | 297 | 0.0 | 6.4 | 0.00 | 0.71 | 0.00 | 85 | 1012.8 |
| 20260901151558 | 25 | 298 | 0.0 | 6.4 | 0.00 | 0.71 | 0.00 | 86 | 1012.7 |
| 20260901150058 | 25 | 331 | 0.0 | 3.2 | 0.00 | 0.71 | 0.00 | 87 | 1012.9 |
| 20260901144559 | 25 | 331 | 0.0 | 4.8 | 0.00 | 0.79 | 0.00 | 85 | 1012.8 |
| 20260901143059 | 25 | 331 | 0.0 | 6.4 | 0.00 | 0.79 | 0.00 | 86 | 1012.6 |
| 20260901141558 | 25 | 331 | 0.0 | 4.8 | 0.00 | 0.79 | 0.00 | 86 | 1012.5 |
| 20260901140058 | 25 | 293 | 1.6 | 4.8 | 0.00 | 0.79 | 0.00 | 87 | 1012.5 |
| 20260901134558 | 25 | 293 | 1.6 | 4.8 | 0.00 | 0.79 | 0.00 | 87 | 1012.5 |
| 20260901133058 | 25 | 293 | 0.0 | 4.8 | 0.00 | 0.79 | 0.00 | 86 | 1012.6 |
| 20260901131620 | 25 | 202 | 0.0 | 3.2 | 0.00 | 0.79 | 0.00 | 89 | 1012.5 |
| 20260901124602 | 23 | 139 | 0.0 | 3.2 | 0.00 | 0.81 | 0.00 | 91 | 1012.8 |
| 20260901123058 | 23 | 139 | 0.0 | 3.2 | 0.00 | 0.81 | 0.00 | 94 | 1012.8 |
| 20260901121558 | 22 | 139 | 0.0 | 0.0 | 0.00 | 0.81 | 0.00 | 95 | 1012.6 |
| 20260901120058 | 21 | 182 | 0.0 | 1.6 | 0.00 | 0.81 | 0.00 | 95 | 1012.6 |
| 20260901114558 | 21 | 182 | 0.0 | 0.0 | 0.00 | 0.94 | 0.00 | 94 | 1012.3 |